WA9NNN-10 Weather Reports


time (UTC)temp
F
wind
direction
speed
knots
gust
knots
rain 1hr
in
rain 24hr
in
rain mn
in
humidity
%
barometer
mb
20260504040137 60 203 0.9 2.6 0.00 0.00 0.00 62 1005.5
20260504035636 60 218 0.9 1.7 0.00 0.00 0.00 62 1005.6
20260504035137 60 186 0.9 2.6 0.00 0.00 0.00 61 1005.6
20260504034637 60 167 2.6 2.6 0.00 0.00 0.00 61 1005.7
20260504034137 60 217 2.6 2.6 0.00 0.00 0.00 61 1005.7
20260504033637 61 208 2.6 2.6 0.00 0.00 0.00 61 1005.8
20260504033137 61 216 2.6 2.6 0.00 0.00 0.00 60 1005.9
20260504032637 61 217 3.5 2.6 0.00 0.00 0.00 60 1006.0
20260504032137 61 195 3.5 2.6 0.00 0.00 0.00 60 1006.0
20260504031636 61 212 1.7 2.6 0.00 0.00 0.00 59 1006.1
20260504031137 61 197 2.6 2.6 0.00 0.00 0.00 59 1006.0
20260504030637 61 206 1.7 2.6 0.00 0.00 0.00 58 1006.1
20260504030137 62 210 0.9 3.5 0.00 0.00 0.00 58 1006.1
20260504025637 62 200 1.7 2.6 0.00 0.00 0.00 58 1006.1
20260504025137 62 186 5.2 2.6 0.00 0.00 0.00 58 1006.1
20260504024636 62 234 1.7 2.6 0.00 0.00 0.00 57 1006.0
20260504024137 62 181 1.7 2.6 0.00 0.00 0.00 57 1006.1
20260504023636 62 193 3.5 2.6 0.00 0.00 0.00 57 1006.0
20260504023137 63 235 3.5 2.6 0.00 0.00 0.00 56 1006.0
20260504022637 63 212 2.6 3.5 0.00 0.00 0.00 56 1006.0
20260504022137 63 217 4.3 2.6 0.00 0.00 0.00 56 1006.0
20260504021637 63 173 3.5 2.6 0.00 0.00 0.00 55 1006.0
20260504021137 63 207 3.5 3.5 0.00 0.00 0.00 55 1006.0
20260504020637 63 192 3.5 3.5 0.00 0.00 0.00 55 1005.9
20260504020137 64 194 1.7 3.5 0.00 0.00 0.00 54 1005.8
20260504015637 64 213 2.6 2.6 0.00 0.00 0.00 54 1005.7
20260504015137 64 186 1.7 3.5 0.00 0.00 0.00 53 1005.6
20260504014636 64 222 4.3 3.5 0.00 0.00 0.00 53 1005.5
20260504014137 64 202 2.6 4.3 0.00 0.00 0.00 53 1005.4
20260504013637 64 205 2.6 4.3 0.00 0.00 0.00 53 1005.4
20260504013137 65 182 1.7 3.5 0.00 0.00 0.00 52 1005.3
20260504012636 65 213 5.2 3.5 0.00 0.00 0.00 52 1005.2
20260504012137 65 189 2.6 2.6 0.00 0.00 0.00 51 1005.1
20260504011636 65 212 1.7 3.5 0.00 0.00 0.00 51 1005.1
20260504011137 65 219 1.7 3.5 0.00 0.00 0.00 50 1005.0
20260504010636 66 219 2.6 3.5 0.00 0.00 0.00 50 1005.1
20260504010137 66 210 3.5 3.5 0.00 0.00 0.00 50 1005.2
20260504005636 66 217 2.6 3.5 0.00 0.00 0.00 49 1005.2
20260504005137 66 219 4.3 3.5 0.00 0.00 0.00 49 1005.2
20260504004636 67 190 5.2 3.5 0.00 0.00 0.00 48 1005.2
20260504004137 67 217 3.5 4.3 0.00 0.00 0.00 48 1005.2
20260504003638 67 190 3.5 4.3 0.00 0.00 0.00 47 1005.2
20260504003137 68 199 6.1 4.3 0.00 0.00 0.00 47 1005.2
20260504002636 68 195 1.7 5.2 0.00 0.00 0.00 46 1005.1
20260504002137 68 206 3.5 5.2 0.00 0.00 0.00 46 1005.1
20260504001637 68 223 6.1 5.2 0.00 0.00 0.00 46 1005.1
20260504001137 69 217 4.3 5.2 0.00 0.00 0.00 45 1005.1
20260504000637 69 181 7.8 5.2 0.00 0.00 0.00 45 1005.2
20260504000137 69 186 6.1 5.2 0.00 0.00 0.00 45 1005.0
20260503235638 69 220 4.3 5.2 0.00 0.00 0.00 45 1005.0
20260503235137 69 240 3.5 5.2 0.00 0.00 0.00 45 1005.0
20260503234636 69 164 5.2 5.2 0.00 0.00 0.00 44 1005.1
20260503234137 68 221 5.2 5.2 0.00 0.00 0.00 45 1005.1
20260503233636 68 186 3.5 6.1 0.00 0.00 0.00 45 1005.1
20260503233137 68 215 6.1 5.2 0.00 0.00 0.00 45 1005.2
20260503232637 68 214 6.1 5.2 0.00 0.00 0.00 45 1005.3
20260503232137 68 212 4.3 6.1 0.00 0.00 0.00 45 1005.3
20260503231637 68 235 4.3 6.1 0.00 0.00 0.00 44 1005.4
20260503231137 68 214 4.3 6.1 0.00 0.00 0.00 44 1005.4
20260503230637 68 215 8.7 6.1 0.00 0.00 0.00 44 1005.4
20260503230137 68 230 11.3 6.1 0.00 0.00 0.00 44 1005.5
20260503225137 68 108 3.5 6.1 0.00 0.00 0.00 44 1005.8
20260503224636 68 233 4.3 7.8 0.00 0.00 0.00 44 1005.8
20260503224137 68 217 5.2 7.0 0.00 0.00 0.00 44 1005.9
20260503223636 68 186 7.0 7.0 0.00 0.00 0.00 43 1005.9
20260503223137 68 183 7.8 7.0 0.00 0.00 0.00 43 1006.0
20260503222637 68 227 6.1 7.8 0.00 0.00 0.00 43 1006.1
20260503222137 68 221 7.0 7.0 0.00 0.00 0.00 43 1006.0
20260503221637 68 192 6.1 7.0 0.00 0.00 0.00 43 1006.1
20260503221137 67 211 5.2 7.0 0.00 0.00 0.00 43 1006.1
20260503220636 67 218 12.2 7.8 0.00 0.00 0.00 43 1006.2
20260503220137 67 236 7.0 7.8 0.00 0.00 0.00 43 1006.2
20260503215636 68 155 6.1 7.0 0.00 0.00 0.00 42 1006.3
20260503215137 68 221 8.7 7.8 0.00 0.00 0.00 41 1006.4
20260503214636 68 228 9.6 7.8 0.00 0.00 0.00 42 1006.3
20260503214137 68 235 10.4 7.8 0.00 0.00 0.00 41 1006.4
20260503213636 68 200 16.5 7.8 0.00 0.00 0.00 41 1006.3
20260503213137 67 188 4.3 7.8 0.00 0.00 0.00 42 1006.5
20260503212636 67 198 7.0 7.8 0.00 0.00 0.00 41 1006.5
20260503212137 66 226 4.3 7.8 0.00 0.00 0.00 42 1006.6
20260503211638 65 179 13.9 7.8 0.00 0.00 0.00 42 1006.8
20260503211137 65 189 6.1 7.0 0.00 0.00 0.00 42 1006.7
20260503210636 65 207 11.3 7.8 0.00 0.00 0.00 42 1006.9
20260503210136 65 244 4.3 8.7 0.00 0.00 0.00 42 1006.9
20260503205636 65 227 9.6 9.6 0.00 0.00 0.00 41 1007.0
20260503205136 66 203 9.6 10.4 0.00 0.00 0.00 41 1007.1
20260503204636 66 188 13.9 8.7 0.00 0.00 0.00 40 1007.3
20260503204136 67 203 16.5 7.0 0.00 0.00 0.00 40 1007.4
20260503203636 68 212 7.8 7.0 0.00 0.00 0.00 41 1007.3
20260503203137 67 193 7.8 7.0 0.00 0.00 0.00 41 1007.4
20260503202636 67 202 7.8 8.7 0.00 0.00 0.00 41 1007.4
20260503202137 67 226 7.0 9.6 0.00 0.00 0.00 43 1007.5
20260503201637 66 191 19.1 9.6 0.00 0.00 0.00 43 1007.6
20260503201136 66 179 17.4 10.4 0.00 0.00 0.00 43 1007.9
20260503200636 66 219 9.6 11.3 0.00 0.00 0.00 43 1008.1
20260503200136 66 221 13.9 10.4 0.00 0.00 0.00 44 1007.9
20260503195636 65 216 8.7 8.7 0.00 0.00 0.00 44 1008.1
20260503195137 65 211 11.3 7.8 0.00 0.00 0.00 46 1008.1
20260503194636 65 257 7.8 7.8 0.00 0.00 0.00 48 1008.2
20260503194138 65 189 4.3 7.8 0.00 0.00 0.00 48 1008.3
20260503193636 65 212 9.6 7.0 0.00 0.00 0.00 47 1008.4
20260503193137 65 112 5.2 7.8 0.00 0.00 0.00 47 1008.3
20260503192636 64 210 3.5 7.8 0.00 0.00 0.00 49 1008.6
20260503192136 64 181 11.3 7.0 0.00 0.00 0.00 47 1008.7
20260503191636 64 198 7.8 7.0 0.00 0.00 0.00 48 1008.9
20260503191137 63 221 7.0 7.0 0.00 0.00 0.00 49 1009.0
20260503190636 62 231 7.8 6.1 0.00 0.00 0.00 50 1009.1
20260503190137 61 212 5.2 6.1 0.00 0.00 0.00 52 1009.1
20260503185636 60 203 3.5 6.1 0.00 0.00 0.00 55 1009.1
20260503185136 59 192 9.6 7.0 0.00 0.00 0.00 55 1009.3
20260503184637 58 210 5.2 6.1 0.00 0.00 0.00 55 1009.4
20260503184136 58 189 4.3 6.1 0.00 0.00 0.00 57 1009.5
20260503183637 58 224 3.5 6.1 0.00 0.00 0.00 58 1009.5
20260503183136 57 165 6.1 6.1 0.00 0.00 0.00 59 1009.7
20260503182636 56 215 2.6 7.0 0.00 0.00 0.00 60 1009.9
20260503182136 56 207 9.6 7.0 0.00 0.00 0.00 59 1009.8
20260503181636 56 188 3.5 7.0 0.00 0.00 0.00 59 1009.9
20260503181137 56 207 5.2 6.1 0.00 0.00 0.00 59 1010.3
20260503180636 56 212 3.5 6.1 0.00 0.00 0.00 60 1010.6
20260503180136 56 215 7.0 7.0 0.00 0.00 0.00 60 1011.0
20260503175637 56 182 6.1 7.0 0.00 0.00 0.00 61 1011.1
20260503175136 56 217 7.8 8.7 0.00 0.00 0.00 60 1011.2
20260503174636 56 204 4.3 7.8 0.00 0.00 0.00 61 1011.4
20260503174136 56 209 10.4 7.0 0.00 0.00 0.00 61 1011.5
20260503173636 56 130 9.6 6.1 0.00 0.00 0.00 63 1011.7
20260503173137 56 159 2.6 6.1 0.00 0.00 0.00 64 1011.7
20260503172636 55 206 2.6 6.1 0.00 0.00 0.00 65 1011.9
20260503172137 55 193 7.8 7.0 0.00 0.00 0.00 66 1012.0
20260503171636 54 206 4.3 7.0 0.00 0.00 0.00 67 1012.1
20260503171137 54 193 7.0 6.1 0.00 0.00 0.00 68 1012.3
20260503170636 53 229 4.3 5.2 0.00 0.00 0.00 69 1012.2
20260503170137 53 184 8.7 5.2 0.00 0.00 0.00 69 1012.3
20260503160136 57 212 11.3 8.7 0.00 0.00 0.00 55 1013.1
20260503150637 56 198 7.0 6.1 0.00 0.00 0.00 55 1012.8
20260503150136 56 195 7.0 5.2 0.00 0.00 0.00 55 1012.7
20260503140137 54 217 4.3 5.2 0.00 0.00 0.00 54 1013.7
20260503131138 52 222 7.8 5.2 0.00 0.00 0.00 55 1014.0
20260503130637 52 287 4.3 5.2 0.00 0.00 0.00 55 1014.0
20260503130137 52 213 7.0 5.2 0.00 0.00 0.00 54 1014.1
20260503120137 51 224 6.1 6.1 0.00 0.00 0.00 56 1013.7
20260503110637 48 252 3.5 4.3 0.00 0.00 0.00 58 1013.6
20260503110137 48 229 5.2 4.3 0.00 0.00 0.00 58 1013.7
20260503100138 47 217 4.3 3.5 0.00 0.00 0.00 58 1014.0
20260503090137 46 169 3.5 3.5 0.00 0.00 0.00 57 1014.1
20260503081636 47 195 1.7 2.6 0.00 0.00 0.00 56 1014.3
20260503081137 47 208 1.7 2.6 0.00 0.00 0.00 56 1014.3
20260503080637 47 219 5.2 2.6 0.00 0.00 0.00 56 1014.3
20260503080137 47 188 1.7 2.6 0.00 0.00 0.00 56 1014.4
20260503072637 47 192 4.3 2.6 0.00 0.00 0.00 56 1014.5
20260503072137 47 216 4.3 2.6 0.00 0.00 0.00 56 1014.5
20260503071636 47 227 3.5 2.6 0.00 0.00 0.00 56 1014.5
20260503071137 47 223 1.7 2.6 0.00 0.00 0.00 55 1014.6
20260503070636 47 217 1.7 2.6 0.00 0.00 0.00 55 1014.6
20260503070137 47 205 2.6 2.6 0.00 0.00 0.00 55 1014.7
20260503060137 47 188 3.5 2.6 0.00 0.00 0.00 54 1015.1
20260503054636 47 188 4.3 2.6 0.00 0.00 0.00 54 1015.2
20260503054137 47 196 2.6 2.6 0.00 0.00 0.00 54 1015.3
20260503053637 47 210 2.6 2.6 0.00 0.00 0.00 54 1015.3
20260503053137 47 212 3.5 2.6 0.00 0.00 0.00 54 1015.4
20260503052637 47 198 1.7 2.6 0.00 0.00 0.00 54 1015.4
20260503052137 47 220 1.7 2.6 0.00 0.00 0.00 54 1015.5
20260503051636 48 238 4.3 2.6 0.00 0.00 0.00 55 1015.6
20260503051136 48 221 1.7 2.6 0.00 0.00 0.00 54 1015.6
20260503050636 48 207 1.7 2.6 0.00 0.00 0.00 54 1015.6
20260503050137 48 214 3.5 2.6 0.00 0.00 0.00 54 1015.6
20260503045636 48 207 2.6 2.6 0.00 0.00 0.00 54 1015.6
20260503045138 48 186 1.7 2.6 0.00 0.00 0.00 54 1015.6
20260503044636 48 205 2.6 2.6 0.00 0.00 0.00 53 1015.6
20260503044137 48 212 1.7 2.6 0.00 0.00 0.00 54 1015.7
20260503043636 48 205 1.7 2.6 0.00 0.00 0.00 53 1015.7
20260503043137 48 226 1.7 2.6 0.00 0.00 0.00 53 1015.7
20260503042636 49 193 1.7 2.6 0.00 0.00 0.00 53 1015.6
20260503042137 49 206 4.3 2.6 0.00 0.00 0.00 53 1015.7
20260503041636 49 219 2.6 2.6 0.00 0.00 0.00 53 1015.7
20260503041137 49 217 2.6 2.6 0.00 0.00 0.00 52 1015.7
20260503040637 49 210 1.7 2.6 0.00 0.00 0.00 52 1015.7